This is the latest recevied weather packets stored in our database for station/object SQ7IQO. If no packets are shown the sender has not sent any weather packets the latest 10 day(s).
| Time | Temp. | Humidity | Pressure | Rain* | Wind** | Luminosity | Snow |
|---|---|---|---|---|---|---|---|
| 1788083863 | 26.11° C | 49% | 1016.6 hPa | 0 mm | 0.45 m/s, ° | - | - |
| 1788083803 | 26.11° C | 49% | 1716.5 hPa | 0 mm | 0 m/s | - | - |
| 1788083743 | 25.56° C | 48% | 1016.6 hPa | 0 mm | 0.45 m/s, ° | - | - |
| 1788083683 | 25.56° C | 49% | 1010.8 hPa | 0 mm | 0.45 m/s, ° | - | - |
| 1788083623 | 26.11° C | 48% | 1016.6 hPa | 0 mm | 1.34 m/s, ° | - | - |
| 1788083563 | 26.11° C | 49% | 1229.1 hPa | 0 mm | 0 m/s | - | - |
| 1788083503 | 26.11° C | 49% | 1229.2 hPa | 0 mm | 0 m/s | - | - |
| 1788083443 | 25.56° C | 49% | - | 0 mm | 0 m/s | - | - |
| 1788083383 | 26.11° C | 50% | - | 0 mm | 0.45 m/s, ° | - | - |
| 1788083323 | 26.11° C | 51% | 1016.7 hPa | 0 mm | 0.45 m/s, ° | - | - |
| 1788083263 | 25.56° C | 50% | 1016.7 hPa | 0 mm | 0 m/s | - | - |
| 1788083203 | 25.56° C | 51% | 1016.8 hPa | 0 mm | 0 m/s | - | - |
| 1788083143 | 25.56° C | 51% | 1016.4 hPa | 0 mm | 0.45 m/s, ° | - | - |
| 1788083083 | 25.56° C | 52% | 1016.7 hPa | 0 mm | 0.45 m/s, ° | - | - |
| 1788083023 | 25° C | 52% | 1018.6 hPa | 0 mm | 0 m/s | - | - |
| 1788082963 | 25° C | 53% | 1016.7 hPa | 0 mm | 0 m/s | - | - |
| 1788082903 | 25° C | 52% | 1016.8 hPa | 0 mm | 0.89 m/s, ° | - | - |
| 1788082843 | 25° C | 53% | 1016.8 hPa | 0 mm | 0.89 m/s, ° | - | - |
| 1788082723 | 25° C | 53% | 1016.8 hPa | 0 mm | 0.89 m/s, ° | - | - |
| 1788082663 | 25° C | 52% | 1016.7 hPa | 0 mm | 0.45 m/s, ° | - | - |
| 1788082603 | 24.44° C | 52% | 1016.8 hPa | 0 mm | 0 m/s | - | - |
| 1788082543 | 25° C | 52% | 1016.8 hPa | 0 mm | 0.89 m/s, ° | - | - |
| 1788082483 | 25° C | 52% | 1016.8 hPa | 0 mm | 0.89 m/s, ° | - | - |
| 1788082423 | 25° C | 51% | 1016.7 hPa | 0 mm | 0.89 m/s, ° | - | - |
| 1788082363 | 25° C | 50% | 1016.8 hPa | 0 mm | 0 m/s | - | - |
* Rain latest hour (hover to see other rain measurements)
** Current wind speed in m/s (hover to see current wind gust speed)